• En Colombia
  • Lista de países
  • Para 7 días
  • Temperatura del agua
  • El tiempo en el mapa
  • Informadores
  • user-avatar
    Iniciar sesión

    Tiempo cada hora Darwin

    Hoy, 21 Enero, Martes

    Tiempo Temperatura Precipitaciones Viento Presión Humedad
    00:00 +29°C° 0.1 mm 5 mps 757 mmHg 84%
    01:00 +28°C° 1.6 mm 5 mps 756 mmHg 86%
    02:00 +28°C° 1.6 mm 5 mps 756 mmHg 88%
    03:00 +28°C° 0 mm 6 mps 756 mmHg 88%
    04:00 +28°C° 0.3 mm 6 mps 756 mmHg 87%
    05:00 +28°C° 0.3 mm 5 mps 756 mmHg 87%
    06:00 +28°C° 0.3 mm 5 mps 757 mmHg 86%
    07:00 +30°C° 0.2 mm 5 mps 757 mmHg 83%
    08:00 +32°C° 0.2 mm 5 mps 757 mmHg 80%
    09:00 +33°C° 0 mm 6 mps 758 mmHg 76%
    10:00 +33°C° 1.8 mm 6 mps 757 mmHg 75%
    11:00 +33°C° 1.8 mm 6 mps 757 mmHg 74%
    12:00 +34°C° 1.8 mm 6 mps 757 mmHg 72%
    13:00 +33°C° 1.2 mm 6 mps 756 mmHg 73%
    14:00 +33°C° 1.2 mm 7 mps 756 mmHg 74%
    15:00 +33°C° 1.2 mm 7 mps 755 mmHg 75%
    16:00 +32°C° 0.8 mm 7 mps 756 mmHg 78%
    17:00 +30°C° 0.8 mm 7 mps 756 mmHg 81%
    18:00 +30°C° 0.8 mm 7 mps 756 mmHg 83%
    19:00 +29°C° 0.4 mm 7 mps 756 mmHg 84%
    20:00 +29°C° 0.4 mm 7 mps 757 mmHg 85%
    21:00 +29°C° 0.4 mm 7 mps 757 mmHg 86%
    22:00 +29°C° 1 mm 8 mps 757 mmHg 86%
    23:00 +29°C° 1 mm 8 mps 757 mmHg 86%

    Mañana, 22 Enero, Miércoles

    Tiempo Temperatura Precipitaciones Viento Presión Humedad
    00:00 +29°C° 1 mm 8 mps 757 mmHg 86%
    01:00 +29°C° 1.1 mm 9 mps 756 mmHg 86%
    02:00 +29°C° 1.1 mm 9 mps 756 mmHg 85%
    03:00 +29°C° 1.1 mm 9 mps 756 mmHg 85%
    04:00 +29°C° 1.1 mm 9 mps 756 mmHg 85%
    05:00 +29°C° 1.1 mm 9 mps 756 mmHg 85%
    06:00 +29°C° 1.1 mm 9 mps 756 mmHg 85%
    07:00 +29°C° 1.8 mm 9 mps 757 mmHg 84%
    08:00 +29°C° 1.8 mm 8 mps 757 mmHg 84%
    09:00 +31°C° 1.8 mm 8 mps 757 mmHg 83%
    10:00 +31°C° 2.4 mm 8 mps 757 mmHg 84%
    11:00 +30°C° 2.4 mm 7 mps 757 mmHg 85%
    12:00 +29°C° 2.4 mm 7 mps 757 mmHg 86%
    13:00 +29°C° 2.5 mm 7 mps 756 mmHg 86%
    14:00 +29°C° 2.5 mm 7 mps 756 mmHg 87%
    15:00 +29°C° 2.5 mm 7 mps 755 mmHg 87%
    16:00 +29°C° 1.9 mm 7 mps 755 mmHg 88%
    17:00 +29°C° 1.9 mm 7 mps 755 mmHg 88%
    18:00 +29°C° 1.9 mm 7 mps 755 mmHg 89%
    19:00 +28°C° 2 mm 6 mps 756 mmHg 89%
    20:00 +28°C° 2 mm 6 mps 756 mmHg 89%
    21:00 +28°C° 2 mm 6 mps 756 mmHg 90%
    22:00 +29°C° 2.2 mm 6 mps 756 mmHg 89%
    23:00 +29°C° 2.2 mm 7 mps 756 mmHg 89%

    Pasado mañana, 23 Enero, Jueves

    Tiempo Temperatura Precipitaciones Viento Presión Humedad
    00:00 +29°C° 2.2 mm 7 mps 756 mmHg 89%
    01:00 +29°C° 2.5 mm 7 mps 756 mmHg 89%
    02:00 +29°C° 2.5 mm 7 mps 755 mmHg 89%
    03:00 +29°C° 2.5 mm 7 mps 755 mmHg 89%
    04:00 +28°C° 6 mm 6 mps 755 mmHg 91%
    05:00 +28°C° 6 mm 5 mps 755 mmHg 93%
    06:00 +27°C° 6 mm 5 mps 755 mmHg 94%
    07:00 +27°C° 9.6 mm 4 mps 756 mmHg 94%
    08:00 +27°C° 9.6 mm 3 mps 756 mmHg 94%
    09:00 +27°C° 9.6 mm 3 mps 756 mmHg 95%
    10:00 +28°C° 1.9 mm 3 mps 756 mmHg 92%
    11:00 +29°C° 1.9 mm 3 mps 756 mmHg 89%
    12:00 +29°C° 1.9 mm 3 mps 756 mmHg 86%
    13:00 +30°C° 0.5 mm 4 mps 755 mmHg 83%
    14:00 +32°C° 0.5 mm 4 mps 754 mmHg 80%
    15:00 +32°C° 0.5 mm 5 mps 754 mmHg 77%
    16:00 +32°C° 0.2 mm 5 mps 754 mmHg 79%
    17:00 +32°C° 0.2 mm 4 mps 754 mmHg 81%
    18:00 +32°C° 0.2 mm 4 mps 754 mmHg 83%
    19:00 +30°C° 0 mm 4 mps 754 mmHg 84%
    20:00 +30°C° 0 mm 4 mps 755 mmHg 85%
    21:00 +29°C° 0 mm 4 mps 755 mmHg 86%
    22:00 +29°C° 0.4 mm 5 mps 755 mmHg 87%
    23:00 +29°C° 0.4 mm 5 mps 755 mmHg 88%

    24 Enero, Viernes

    Tiempo Temperatura Precipitaciones Viento Presión Humedad
    00:00 +29°C° 0.4 mm 5 mps 756 mmHg 89%
    01:00 +29°C° 2.4 mm 5 mps 755 mmHg 89%
    02:00 +29°C° 2.4 mm 6 mps 755 mmHg 89%
    03:00 +29°C° 2.4 mm 6 mps 754 mmHg 89%
    04:00 +29°C° 3.6 mm 6 mps 755 mmHg 89%
    05:00 +29°C° 3.6 mm 5 mps 755 mmHg 89%
    06:00 +29°C° 3.6 mm 4 mps 755 mmHg 90%
    07:00 +30°C° 1.7 mm 5 mps 755 mmHg 86%
    08:00 +30°C° 1.7 mm 5 mps 756 mmHg 83%
    09:00 +32°C° 1.7 mm 5 mps 756 mmHg 79%
    10:00 +33°C° 0.3 mm 5 mps 756 mmHg 76%
    11:00 +34°C° 0.3 mm 6 mps 756 mmHg 73%
    12:00 +35°C° 0.3 mm 6 mps 756 mmHg 70%
    13:00 +34°C° 0.2 mm 6 mps 755 mmHg 70%
    14:00 +34°C° 0.2 mm 7 mps 755 mmHg 71%
    15:00 +34°C° 0.2 mm 7 mps 754 mmHg 71%
    16:00 +33°C° 0 mm 6 mps 754 mmHg 74%
    17:00 +32°C° 0 mm 6 mps 754 mmHg 78%
    18:00 +32°C° 0 mm 5 mps 754 mmHg 81%
    19:00 +30°C° 1.3 mm 5 mps 755 mmHg 84%
    20:00 +30°C° 1.3 mm 5 mps 755 mmHg 86%
    21:00 +29°C° 1.3 mm 4 mps 756 mmHg 89%
    22:00 +29°C° 2.8 mm 4 mps 756 mmHg 89%
    23:00 +29°C° 2.8 mm 5 mps 756 mmHg 89%

    25 Enero, Sábado

    Tiempo Temperatura Precipitaciones Viento Presión Humedad
    00:00 +29°C° 2.8 mm 5 mps 756 mmHg 88%
    01:00 +29°C° 0.8 mm 4 mps 755 mmHg 89%
    02:00 +28°C° 0.8 mm 3 mps 755 mmHg 89%
    03:00 +28°C° 0.8 mm 2 mps 755 mmHg 90%
    04:00 +28°C° 2.1 mm 2 mps 755 mmHg 89%
    05:00 +28°C° 2.1 mm 2 mps 755 mmHg 88%
    06:00 +28°C° 2.1 mm 2 mps 755 mmHg 87%
    07:00 +29°C° 0.4 mm 3 mps 755 mmHg 83%
    08:00 +31°C° 0.4 mm 3 mps 756 mmHg 80%
    09:00 +33°C° 0.4 mm 3 mps 756 mmHg 76%
    10:00 +33°C° 0.8 mm 4 mps 756 mmHg 75%
    11:00 +34°C° 0.8 mm 4 mps 756 mmHg 73%
    12:00 +34°C° 0.8 mm 4 mps 756 mmHg 71%
    13:00 +34°C° 0 mm 4 mps 755 mmHg 69%
    14:00 +35°C° 0 mm 4 mps 754 mmHg 68%
    15:00 +35°C° 0 mm 4 mps 754 mmHg 66%
    16:00 +34°C° 0 mm 4 mps 754 mmHg 71%
    17:00 +33°C° 0 mm 4 mps 754 mmHg 75%
    18:00 +32°C° 0 mm 4 mps 754 mmHg 80%
    19:00 +30°C° 0.1 mm 4 mps 754 mmHg 82%
    20:00 +30°C° 0.1 mm 4 mps 755 mmHg 85%
    21:00 +29°C° 0.1 mm 3 mps 755 mmHg 87%
    22:00 +29°C° 0.7 mm 4 mps 755 mmHg 88%
    23:00 +29°C° 0.7 mm 4 mps 755 mmHg 90%

    26 Enero, Domingo

    Tiempo Temperatura Precipitaciones Viento Presión Humedad
    00:00 +29°C° 0.7 mm 5 mps 756 mmHg 92%
    01:00 +29°C° 0.4 mm 5 mps 755 mmHg 92%
    02:00 +29°C° 0.4 mm 5 mps 755 mmHg 91%
    03:00 +29°C° 0.4 mm 5 mps 754 mmHg 91%
    04:00 +29°C° 0 mm 5 mps 754 mmHg 91%
    05:00 +29°C° 0 mm 4 mps 754 mmHg 91%
    06:00 +28°C° 0 mm 4 mps 755 mmHg 92%
    07:00 +30°C° 0 mm 4 mps 755 mmHg 87%
    08:00 +32°C° 0 mm 4 mps 755 mmHg 82%
    09:00 +33°C° 0 mm 3 mps 756 mmHg 77%
    10:00 +34°C° 0.1 mm 4 mps 755 mmHg 72%
    11:00 +35°C° 0.1 mm 4 mps 755 mmHg 67%
    12:00 +36°C° 0.1 mm 4 mps 755 mmHg 62%
    13:00 +36°C° 0 mm 4 mps 754 mmHg 64%
    14:00 +35°C° 0 mm 5 mps 754 mmHg 65%
    15:00 +35°C° 0 mm 5 mps 753 mmHg 67%
    16:00 +34°C° 0 mm 5 mps 753 mmHg 70%
    17:00 +33°C° 0 mm 5 mps 753 mmHg 74%
    18:00 +33°C° 0 mm 5 mps 754 mmHg 78%
    19:00 +32°C° 0.1 mm 5 mps 754 mmHg 80%
    20:00 +30°C° 0.1 mm 4 mps 755 mmHg 83%
    21:00 +30°C° 0.1 mm 4 mps 755 mmHg 85%
    22:00 +30°C° 0.2 mm 4 mps 755 mmHg 87%
    23:00 +29°C° 0.2 mm 4 mps 755 mmHg 89%
    Mostrar más